,,,PA_Meas_PMT16A,,PR_Meas_QMR101_102,,RH_Meas_QMH101,,SR_Meas_QMS101,,TA_Meas_QMH101,,GenWind,,GenWind,
date,time,status,PA,status,PR,status,RH,status,SR,status,TA,status,DirAvg,status,SpdAvg,
2011-08-07, 00:00:04,VALID,1004.24,VALID,0,INVALID,163.647,VALID,0,VALID,25.709,VALID,58,VALID,0,
2011-08-07, 00:01:04,VALID,1004.24,VALID,0,INVALID,163.609,VALID,0,VALID,25.709,VALID,67,VALID,0,
2011-08-07, 00:02:04,VALID,1004.25,VALID,0,INVALID,163.586,VALID,0.100563,VALID,25.6895,VALID,67,VALID,0,
2011-08-07, 00:03:04,VALID,1004.26,VALID,0,INVALID,163.594,VALID,0.100563,VALID,25.6292,VALID,58,VALID,0,
2011-08-07, 00:04:04,VALID,1004.27,VALID,0,INVALID,163.662,VALID,0,VALID,25.5902,VALID,57,VALID,0,
2011-08-07, 00:05:04,VALID,1004.27,VALID,0,INVALID,163.594,VALID,0.100563,VALID,25.5513,VALID,78,VALID,0,
2011-08-07, 00:06:04,VALID,1004.3,VALID,0,INVALID,163.685,VALID,0,VALID,25.5123,VALID,80,VALID,0,
2011-08-07, 00:07:04,VALID,1004.36,VALID,0,INVALID,163.632,VALID,0,VALID,25.4344,VALID,44,VALID,0,
2011-08-07, 00:08:04,VALID,1004.36,VALID,0,INVALID,163.662,VALID,0.100563,VALID,25.376,VALID,44,VALID,0,
2011-08-07, 00:09:04,VALID,1004.4,VALID,0,INVALID,163.609,VALID,0,VALID,25.337,VALID,44,VALID,0,
2011-08-07, 00:10:04,VALID,1004.4,VALID,0,INVALID,163.632,VALID,0,VALID,25.3195,VALID,44,VALID,0,
2011-08-07, 00:11:04,VALID,1004.38,VALID,0,INVALID,163.624,VALID,0,VALID,25.2592,VALID,44,VALID,0,
2011-08-07, 00:12:04,VALID,1004.4,VALID,0,INVALID,163.624,VALID,0.100563,VALID,25.2397,VALID,44,VALID,0,
2011-08-07, 00:13:04,VALID,1004.37,VALID,0,INVALID,163.639,VALID,0,VALID,25.2007,VALID,44,VALID,0,
2011-08-07, 00:14:04,VALID,1004.37,VALID,0,INVALID,163.624,VALID,0,VALID,25.1599,VALID,44,VALID,0,
2011-08-07, 00:15:04,VALID,1004.35,VALID,0,INVALID,163.632,VALID,0.100563,VALID,25.121,VALID,44,VALID,0,
2011-08-07, 00:16:04,VALID,1004.36,VALID,0,INVALID,163.647,VALID,0,VALID,25.1034,VALID,44,VALID,0,
2011-08-07, 00:17:04,VALID,1004.36,VALID,0,INVALID,163.632,VALID,0,VALID,25.0644,VALID,44,VALID,0,
2011-08-07, 00:18:04,VALID,1004.32,VALID,0,INVALID,163.685,VALID,0,VALID,25.0839,VALID,22,VALID,0,
2011-08-07, 00:19:04,VALID,1004.29,VALID,0,INVALID,163.632,VALID,0.100563,VALID,25.082,VALID,27,VALID,0,
2011-08-07, 00:20:04,VALID,1004.3,VALID,0,INVALID,163.632,VALID,0,VALID,25.2027,VALID,17,VALID,0,
2011-08-07, 00:21:04,VALID,1004.27,VALID,0,INVALID,163.678,VALID,0,VALID,25.2786,VALID,20,VALID,0,
2011-08-07, 00:22:04,VALID,1004.23,VALID,0,INVALID,163.624,VALID,0.100563,VALID,25.3565,VALID,11,VALID,0,
2011-08-07, 00:23:04,VALID,1004.21,VALID,0,INVALID,163.609,VALID,0.100563,VALID,25.4753,VALID,19,VALID,0,
2011-08-07, 00:24:04,VALID,1004.18,VALID,0,INVALID,163.693,VALID,0,VALID,25.5123,VALID,12,VALID,0,
2011-08-07, 00:25:04,VALID,1004.16,VALID,0,INVALID,163.655,VALID,0,VALID,25.5532,VALID,23,VALID,0,
2011-08-07, 00:26:04,VALID,1004.17,VALID,0,INVALID,163.685,VALID,0,VALID,25.5727,VALID,22,VALID,0,
2011-08-07, 00:27:04,VALID,1004.15,VALID,0,INVALID,163.586,VALID,0.100563,VALID,25.5513,VALID,25,VALID,0,
2011-08-07, 00:28:04,VALID,1004.16,VALID,0,INVALID,163.594,VALID,0,VALID,25.6097,VALID,16,VALID,0,
2011-08-07, 00:29:04,VALID,1004.18,VALID,0,INVALID,163.586,VALID,0,VALID,25.6311,VALID,16,VALID,0,
2011-08-07, 00:30:04,VALID,1004.2,VALID,0,INVALID,163.601,VALID,0,VALID,25.6486,VALID,26,VALID,0,
2011-08-07, 00:31:04,VALID,1004.23,VALID,0,INVALID,163.594,VALID,0,VALID,25.67,VALID,29,VALID,0,
2011-08-07, 00:32:04,VALID,1004.23,VALID,0,INVALID,163.594,VALID,0,VALID,25.6681,VALID,16,VALID,0,
2011-08-07, 00:33:04,VALID,1004.28,VALID,0,INVALID,163.67,VALID,0,VALID,25.785,VALID,39,VALID,0,
2011-08-07, 00:34:04,VALID,1004.27,VALID,0,INVALID,163.594,VALID,0,VALID,25.8434,VALID,24,VALID,0,
2011-08-07, 00:35:04,VALID,1004.24,VALID,0,INVALID,163.594,VALID,0,VALID,25.8434,VALID,16,VALID,0,
2011-08-07, 00:36:04,VALID,1004.23,VALID,0,INVALID,163.556,VALID,0,VALID,25.8025,VALID,26,VALID,0,
2011-08-07, 00:37:04,VALID,1004.17,VALID,0,INVALID,163.601,VALID,0,VALID,25.8453,VALID,26,VALID,0,
2011-08-07, 00:38:04,VALID,1004.16,VALID,0,INVALID,163.594,VALID,0,VALID,25.7265,VALID,26,VALID,0,
2011-08-07, 00:39:04,VALID,1004.14,VALID,0,INVALID,163.662,VALID,0,VALID,25.6681,VALID,26,VALID,0,
2011-08-07, 00:40:04,VALID,1004.12,VALID,0,INVALID,163.632,VALID,0,VALID,25.6097,VALID,19,VALID,0,
2011-08-07, 00:41:04,VALID,1004.11,VALID,0,INVALID,163.624,VALID,0,VALID,25.6116,VALID,12,VALID,0,
2011-08-07, 00:42:04,VALID,1004.1,VALID,0,INVALID,163.601,VALID,0,VALID,25.67,VALID,27,VALID,0,
2011-08-07, 00:43:04,VALID,1004.11,VALID,0,INVALID,163.601,VALID,0,VALID,25.6506,VALID,27,VALID,0,
2011-08-07, 00:44:04,VALID,1004.1,VALID,0,INVALID,163.609,VALID,0,VALID,25.5727,VALID,27,VALID,0,
2011-08-07, 00:45:04,VALID,1004.11,VALID,0,INVALID,163.617,VALID,0,VALID,25.4734,VALID,27,VALID,0,
2011-08-07, 00:46:04,VALID,1004.11,VALID,0,INVALID,163.609,VALID,0,VALID,25.4169,VALID,27,VALID,0,
2011-08-07, 00:47:04,VALID,1004.1,VALID,0,INVALID,163.609,VALID,0,VALID,25.3584,VALID,27,VALID,0,
2011-08-07, 00:48:04,VALID,1004.1,VALID,0,INVALID,163.617,VALID,0,VALID,25.2806,VALID,27,VALID,0,
2011-08-07, 00:49:04,VALID,1004.1,VALID,0,INVALID,163.617,VALID,0,VALID,25.2221,VALID,27,VALID,0,
2011-08-07, 00:50:04,VALID,1004.12,VALID,0,INVALID,163.632,VALID,0,VALID,25.1637,VALID,27,VALID,0,
2011-08-07, 00:51:04,VALID,1004.11,VALID,0,INVALID,163.624,VALID,0,VALID,25.0858,VALID,27,VALID,0,
2011-08-07, 00:52:04,VALID,1004.11,VALID,0,INVALID,163.617,VALID,0,VALID,25.0469,VALID,27,VALID,0,
2011-08-07, 00:53:04,VALID,1004.11,VALID,0,INVALID,163.624,VALID,0,VALID,25.0293,VALID,27,VALID,0,
2011-08-07, 00:54:04,VALID,1004.11,VALID,0,INVALID,163.655,VALID,0,VALID,24.969,VALID,27,VALID,0,
2011-08-07, 00:55:04,VALID,1004.08,VALID,0,INVALID,163.632,VALID,0,VALID,24.8892,VALID,27,VALID,0,
2011-08-07, 00:56:04,VALID,1004.13,VALID,0,INVALID,163.655,VALID,0,VALID,24.8697,VALID,27,VALID,0,
2011-08-07, 00:57:04,VALID,1004.09,VALID,0,INVALID,163.632,VALID,0,VALID,24.8503,VALID,27,VALID,0,
2011-08-07, 00:58:04,VALID,1004.08,VALID,0,INVALID,163.708,VALID,0,VALID,24.8522,VALID,27,VALID,0,
2011-08-07, 00:59:04,VALID,1004.06,VALID,0,INVALID,163.647,VALID,0,VALID,24.8716,VALID,27,VALID,0,
2011-08-07, 01:00:04,VALID,1004.04,VALID,0,INVALID,163.662,VALID,0,VALID,24.8697,VALID,27,VALID,0,
2011-08-07, 01:01:04,VALID,1004.05,VALID,0,INVALID,163.655,VALID,0,VALID,24.9106,VALID,27,VALID,0,
2011-08-07, 01:02:04,VALID,1004.04,VALID,0,INVALID,163.685,VALID,0,VALID,24.9106,VALID,27,VALID,0,
2011-08-07, 01:03:04,VALID,1004.03,VALID,0,INVALID,163.678,VALID,0,VALID,24.9106,VALID,27,VALID,0,
2011-08-07, 01:04:04,VALID,1004,VALID,0,INVALID,163.647,VALID,0,VALID,24.8697,VALID,27,VALID,0,
2011-08-07, 01:05:04,VALID,1004.02,VALID,0,INVALID,163.723,VALID,0,VALID,24.8503,VALID,27,VALID,0,
2011-08-07, 01:06:04,VALID,1004,VALID,0,INVALID,163.639,VALID,0,VALID,24.8522,VALID,53,VALID,0,
2011-08-07, 01:07:04,VALID,1004.01,VALID,0,INVALID,163.662,VALID,0,VALID,24.8522,VALID,61,VALID,0,
2011-08-07, 01:08:04,VALID,1003.95,VALID,0,INVALID,163.67,VALID,0,VALID,24.8132,VALID,61,VALID,0,
2011-08-07, 01:09:04,VALID,1003.95,VALID,0,INVALID,163.662,VALID,0,VALID,24.7937,VALID,61,VALID,0,
2011-08-07, 01:10:04,VALID,1003.94,VALID,0,INVALID,163.662,VALID,0,VALID,24.7529,VALID,57,VALID,0,
2011-08-07, 01:11:04,VALID,1003.93,VALID,0,INVALID,163.678,VALID,0,VALID,24.7548,VALID,63,VALID,0,
2011-08-07, 01:12:04,VALID,1003.91,VALID,0,INVALID,163.685,VALID,0,VALID,24.8308,VALID,87,VALID,0,
2011-08-07, 01:13:04,VALID,1003.87,VALID,0,INVALID,163.655,VALID,0,VALID,24.9476,VALID,90,VALID,0,
2011-08-07, 01:14:04,VALID,1003.87,VALID,0,INVALID,163.67,VALID,0,VALID,25.0858,VALID,81,VALID,0,
2011-08-07, 01:15:04,VALID,1003.85,VALID,0,INVALID,163.655,VALID,0,VALID,25.2007,VALID,63,VALID,0,
2011-08-07, 01:16:04,VALID,1003.81,VALID,0,INVALID,163.609,VALID,0,VALID,25.2592,VALID,16,VALID,0,
2011-08-07, 01:17:04,VALID,1003.83,VALID,0,INVALID,163.624,VALID,0.100563,VALID,25.2981,VALID,56,VALID,0,
2011-08-07, 01:18:04,VALID,1003.85,VALID,0,INVALID,163.632,VALID,0,VALID,25.2981,VALID,20,VALID,0,
2011-08-07, 01:19:04,VALID,1003.83,VALID,0,INVALID,163.655,VALID,0.100563,VALID,25.3176,VALID,30,VALID,0,
2011-08-07, 01:20:04,VALID,1003.8,VALID,0,INVALID,163.609,VALID,0,VALID,25.337,VALID,27,VALID,0,
2011-08-07, 01:21:04,VALID,1003.78,VALID,0,INVALID,163.609,VALID,0,VALID,25.3176,VALID,26,VALID,0,
2011-08-07, 01:22:04,VALID,1003.76,VALID,0,INVALID,163.609,VALID,0,VALID,25.3974,VALID,58,VALID,0,
2011-08-07, 01:23:04,VALID,1003.74,VALID,0,INVALID,163.632,VALID,0,VALID,25.4149,VALID,55,VALID,0,
2011-08-07, 01:24:04,VALID,1003.75,VALID,0,INVALID,163.617,VALID,0,VALID,25.3955,VALID,43,VALID,0,
2011-08-07, 01:25:04,VALID,1003.71,VALID,0,INVALID,163.624,VALID,0,VALID,25.4363,VALID,36,VALID,0,
2011-08-07, 01:26:04,VALID,1003.72,VALID,0,INVALID,163.617,VALID,0,VALID,25.3955,VALID,20,VALID,0,
2011-08-07, 01:27:04,VALID,1003.7,VALID,0,INVALID,163.647,VALID,0.100563,VALID,25.3565,VALID,81,VALID,0,
2011-08-07, 01:28:04,VALID,1003.69,VALID,0,INVALID,163.624,VALID,0,VALID,25.339,VALID,62,VALID,0,
2011-08-07, 01:29:04,VALID,1003.68,VALID,0,INVALID,163.693,VALID,0,VALID,25.2981,VALID,78,VALID,0,
2011-08-07, 01:30:04,VALID,1003.65,VALID,0,INVALID,163.609,VALID,0,VALID,25.3,VALID,49,VALID,0,
2011-08-07, 01:31:04,VALID,1003.6,VALID,0,INVALID,163.647,VALID,0,VALID,25.3,VALID,17,VALID,0,
2011-08-07, 01:32:04,VALID,1003.54,VALID,0,INVALID,163.639,VALID,0,VALID,25.2806,VALID,40,VALID,0,
2011-08-07, 01:33:04,VALID,1003.52,VALID,0,INVALID,163.639,VALID,0,VALID,25.2572,VALID,48,VALID,0,
2011-08-07, 01:34:04,VALID,1003.49,VALID,0,INVALID,163.647,VALID,0,VALID,25.2981,VALID,49,VALID,0,
2011-08-07, 01:35:04,VALID,1003.44,VALID,0,INVALID,163.632,VALID,0,VALID,25.3176,VALID,34,VALID,0,
2011-08-07, 01:36:04,VALID,1003.43,VALID,0,INVALID,163.685,VALID,0,VALID,25.2981,VALID,30,VALID,0,
2011-08-07, 01:37:04,VALID,1003.37,VALID,0,INVALID,163.632,VALID,0,VALID,25.3,VALID,88,VALID,0,
2011-08-07, 01:38:04,VALID,1003.32,VALID,0,INVALID,163.609,VALID,0.100563,VALID,25.3176,VALID,73,VALID,0,
2011-08-07, 01:39:04,VALID,1003.35,VALID,0,INVALID,163.693,VALID,0,VALID,25.2981,VALID,46,VALID,0,
2011-08-07, 01:40:04,VALID,1003.27,VALID,0,INVALID,163.624,VALID,0,VALID,25.3,VALID,68,VALID,0,
2011-08-07, 01:41:04,VALID,1003.29,VALID,0,INVALID,163.624,VALID,0.100563,VALID,25.2981,VALID,55,VALID,0,
2011-08-07, 01:42:04,VALID,1003.24,VALID,0,INVALID,163.639,VALID,0,VALID,25.3176,VALID,23,VALID,0,
2011-08-07, 01:43:04,VALID,1003.23,VALID,0,INVALID,163.693,VALID,0,VALID,25.337,VALID,53,VALID,0,
2011-08-07, 01:44:04,VALID,1003.22,VALID,0,INVALID,163.624,VALID,0,VALID,25.3546,VALID,44,VALID,0,
2011-08-07, 01:45:04,VALID,1003.22,VALID,0,INVALID,163.632,VALID,0,VALID,25.4558,VALID,87,VALID,0,
2011-08-07, 01:46:04,VALID,1003.18,VALID,0,INVALID,163.617,VALID,0.100563,VALID,25.4344,VALID,58,VALID,0,
2011-08-07, 01:47:04,VALID,1003.15,VALID,0,INVALID,163.632,VALID,0,VALID,25.4539,VALID,52,VALID,0,
2011-08-07, 01:48:04,VALID,1003.13,VALID,0,INVALID,163.624,VALID,0,VALID,25.4344,VALID,73,VALID,0,
2011-08-07, 01:49:04,VALID,1003.13,VALID,0,INVALID,163.632,VALID,0,VALID,25.4714,VALID,38,VALID,0,
2011-08-07, 01:50:04,VALID,1003.1,VALID,0,INVALID,163.617,VALID,0,VALID,25.4928,VALID,88,VALID,0,
2011-08-07, 01:51:04,VALID,1003.08,VALID,0,INVALID,163.601,VALID,0,VALID,25.4928,VALID,76,VALID,0,
2011-08-07, 01:52:04,VALID,1003.05,VALID,0,INVALID,163.601,VALID,0,VALID,25.5123,VALID,106,VALID,0,
2011-08-07, 01:53:04,VALID,1003.04,VALID,0,INVALID,163.594,VALID,0,VALID,25.4948,VALID,93,VALID,0,
2011-08-07, 01:54:04,VALID,1003.03,VALID,0,INVALID,163.655,VALID,0,VALID,25.4539,VALID,87,VALID,0,
2011-08-07, 01:55:04,VALID,1003.01,VALID,0,INVALID,163.609,VALID,0.100563,VALID,25.4344,VALID,83,VALID,0,
2011-08-07, 01:56:04,VALID,1003.01,VALID,0,INVALID,163.601,VALID,0,VALID,25.4149,VALID,104,VALID,0,
2011-08-07, 01:57:04,VALID,1002.98,VALID,0,INVALID,163.609,VALID,0,VALID,25.4149,VALID,41,VALID,0,
2011-08-07, 01:58:04,VALID,1002.95,VALID,0,INVALID,163.632,VALID,0,VALID,25.376,VALID,82,VALID,0,
2011-08-07, 01:59:04,VALID,1002.95,VALID,0,INVALID,163.639,VALID,0,VALID,25.337,VALID,80,VALID,0,
2011-08-07, 02:00:04,VALID,1002.95,VALID,0,INVALID,163.632,VALID,0,VALID,25.339,VALID,99,VALID,0,
2011-08-07, 02:01:04,VALID,1002.92,VALID,0,INVALID,163.678,VALID,0,VALID,25.2786,VALID,84,VALID,0,
2011-08-07, 02:02:04,VALID,1002.9,VALID,0,INVALID,163.647,VALID,0.100563,VALID,25.2592,VALID,122,VALID,0,
2011-08-07, 02:03:04,VALID,1002.92,VALID,0,INVALID,163.624,VALID,0,VALID,25.2416,VALID,37,VALID,0,
2011-08-07, 02:04:04,VALID,1002.89,VALID,0,INVALID,163.639,VALID,0,VALID,25.2007,VALID,31,VALID,0,
2011-08-07, 02:05:04,VALID,1002.92,VALID,0,INVALID,163.632,VALID,0,VALID,25.1618,VALID,57,VALID,0,
2011-08-07, 02:06:04,VALID,1002.93,VALID,0,INVALID,163.693,VALID,0,VALID,25.1637,VALID,88,VALID,0,
2011-08-07, 02:07:04,VALID,1002.92,VALID,0,INVALID,163.639,VALID,0,VALID,25.1034,VALID,84,VALID,0,
2011-08-07, 02:08:04,VALID,1002.93,VALID,0,INVALID,163.624,VALID,0,VALID,25.1248,VALID,81,VALID,0,
2011-08-07, 02:09:04,VALID,1002.91,VALID,0,INVALID,163.632,VALID,0,VALID,25.1248,VALID,48,VALID,0,
2011-08-07, 02:10:04,VALID,1002.9,VALID,0,INVALID,163.693,VALID,0,VALID,25.0839,VALID,48,VALID,0,
2011-08-07, 02:11:04,VALID,1002.92,VALID,0,INVALID,163.647,VALID,0,VALID,25.0858,VALID,43,VALID,0,
2011-08-07, 02:12:04,VALID,1002.88,VALID,0,INVALID,163.67,VALID,0,VALID,25.0663,VALID,36,VALID,0,
2011-08-07, 02:13:04,VALID,1002.89,VALID,0,INVALID,163.632,VALID,0,VALID,25.0041,VALID,36,VALID,0,
2011-08-07, 02:14:04,VALID,1002.91,VALID,0,INVALID,163.624,VALID,0,VALID,25.006,VALID,36,VALID,0,
2011-08-07, 02:15:04,VALID,1002.94,VALID,0,INVALID,163.662,VALID,0,VALID,25.006,VALID,36,VALID,0,
2011-08-07, 02:16:04,VALID,1002.93,VALID,0,INVALID,163.662,VALID,0,VALID,25.0255,VALID,36,VALID,0,
2011-08-07, 02:17:04,VALID,1002.96,VALID,0,INVALID,163.639,VALID,0,VALID,25.0255,VALID,36,VALID,0,
2011-08-07, 02:18:04,VALID,1002.96,VALID,0,INVALID,163.678,VALID,0,VALID,25.0274,VALID,76,VALID,0,
2011-08-07, 02:19:04,VALID,1002.99,VALID,0,INVALID,163.639,VALID,0,VALID,24.9866,VALID,76,VALID,0,
2011-08-07, 02:20:04,VALID,1003.04,VALID,0,INVALID,163.708,VALID,0,VALID,24.969,VALID,79,VALID,0,
2011-08-07, 02:21:04,VALID,1003.04,VALID,0,INVALID,163.716,VALID,0,VALID,24.9885,VALID,80,VALID,0,
2011-08-07, 02:22:04,VALID,1003.03,VALID,0,INVALID,163.647,VALID,0,VALID,24.9671,VALID,80,VALID,0,
2011-08-07, 02:23:04,VALID,1003.02,VALID,0,INVALID,163.662,VALID,0,VALID,24.969,VALID,80,VALID,0,
2011-08-07, 02:24:04,VALID,1003.04,VALID,0,INVALID,163.67,VALID,0,VALID,24.9476,VALID,80,VALID,0,
2011-08-07, 02:25:04,VALID,1003.03,VALID,0,INVALID,163.67,VALID,0,VALID,24.9476,VALID,80,VALID,0,
2011-08-07, 02:26:04,VALID,1003.02,VALID,0,INVALID,163.693,VALID,0,VALID,24.969,VALID,80,VALID,0,
2011-08-07, 02:27:04,VALID,1003.02,VALID,0,INVALID,163.67,VALID,0,VALID,24.9885,VALID,79,VALID,0,
2011-08-07, 02:28:04,VALID,1003.02,VALID,0,INVALID,163.655,VALID,0,VALID,25.0079,VALID,79,VALID,0,
2011-08-07, 02:29:04,VALID,1003.02,VALID,0,INVALID,163.655,VALID,0,VALID,24.9866,VALID,79,VALID,0,
2011-08-07, 02:30:04,VALID,1003.01,VALID,0,INVALID,163.647,VALID,0,VALID,24.9866,VALID,79,VALID,0,
2011-08-07, 02:31:04,VALID,1003.02,VALID,0,INVALID,163.685,VALID,0,VALID,24.9671,VALID,79,VALID,0,
2011-08-07, 02:32:04,VALID,1002.99,VALID,0,INVALID,163.632,VALID,0,VALID,24.9476,VALID,79,VALID,0,
2011-08-07, 02:33:04,VALID,1002.99,VALID,0,INVALID,163.678,VALID,0,VALID,24.9671,VALID,79,VALID,0,
2011-08-07, 02:34:04,VALID,1002.98,VALID,0,INVALID,163.647,VALID,0,VALID,24.9885,VALID,79,VALID,0,
2011-08-07, 02:35:04,VALID,1002.98,VALID,0,INVALID,163.647,VALID,0,VALID,24.969,VALID,79,VALID,0,
2011-08-07, 02:36:04,VALID,1003.01,VALID,0,INVALID,163.639,VALID,0,VALID,24.9087,VALID,79,VALID,0,
2011-08-07, 02:37:04,VALID,1003.02,VALID,0,INVALID,163.678,VALID,0,VALID,24.8503,VALID,79,VALID,0,
2011-08-07, 02:38:04,VALID,1003.05,VALID,0,INVALID,163.655,VALID,0,VALID,24.8113,VALID,79,VALID,0,
2011-08-07, 02:39:04,VALID,1003.06,VALID,0,INVALID,163.67,VALID,0,VALID,24.7743,VALID,79,VALID,0,
2011-08-07, 02:40:04,VALID,1003.06,VALID,0,INVALID,163.662,VALID,0,VALID,24.6945,VALID,79,VALID,0,
2011-08-07, 02:41:04,VALID,1003.11,VALID,0,INVALID,163.678,VALID,0,VALID,24.6556,VALID,79,VALID,0,
2011-08-07, 02:42:04,VALID,1003.13,VALID,0,INVALID,163.662,VALID,0,VALID,24.5972,VALID,79,VALID,0,
2011-08-07, 02:43:04,VALID,1003.09,VALID,0,INVALID,163.678,VALID,0.100563,VALID,24.5388,VALID,79,VALID,0,
2011-08-07, 02:44:04,VALID,1003.13,VALID,0,INVALID,163.701,VALID,0,VALID,24.4998,VALID,79,VALID,0,
2011-08-07, 02:45:04,VALID,1003.13,VALID,0,INVALID,163.746,VALID,0.100563,VALID,24.5212,VALID,79,VALID,0,
2011-08-07, 02:46:04,VALID,1003.15,VALID,0,INVALID,163.701,VALID,0,VALID,24.4609,VALID,79,VALID,0,
2011-08-07, 02:47:04,VALID,1003.18,VALID,0,INVALID,163.685,VALID,0,VALID,24.4628,VALID,79,VALID,0,
2011-08-07, 02:48:04,VALID,1003.17,VALID,0,INVALID,163.701,VALID,0,VALID,24.422,VALID,79,VALID,0,
2011-08-07, 02:49:04,VALID,1003.19,VALID,0,INVALID,163.746,VALID,0,VALID,24.3636,VALID,79,VALID,0,
2011-08-07, 02:50:04,VALID,1003.18,VALID,0,INVALID,163.731,VALID,0,VALID,24.3849,VALID,79,VALID,0,
2011-08-07, 02:51:04,VALID,1003.19,VALID,0,INVALID,163.655,VALID,0,VALID,24.3654,VALID,60,VALID,0,
2011-08-07, 02:52:04,VALID,1003.18,VALID,0,INVALID,163.754,VALID,0,VALID,24.3246,VALID,51,VALID,0,
2011-08-07, 02:53:04,VALID,1003.18,VALID,0,INVALID,163.723,VALID,0,VALID,24.307,VALID,44,VALID,0,
2011-08-07, 02:54:04,VALID,1003.19,VALID,0,INVALID,163.693,VALID,0,VALID,24.3265,VALID,35,VALID,0,
2011-08-07, 02:55:04,VALID,1003.19,VALID,0,INVALID,163.693,VALID,0,VALID,24.3052,VALID,27,VALID,0,
2011-08-07, 02:56:04,VALID,1003.2,VALID,0,INVALID,163.693,VALID,0,VALID,24.3052,VALID,25,VALID,0,
2011-08-07, 02:57:04,VALID,1003.24,VALID,0,INVALID,163.716,VALID,0,VALID,24.307,VALID,25,VALID,0,
2011-08-07, 02:58:04,VALID,1003.27,VALID,0,INVALID,163.693,VALID,0.100563,VALID,24.2468,VALID,12,VALID,0,
2011-08-07, 02:59:04,VALID,1003.28,VALID,0,INVALID,163.762,VALID,0.100563,VALID,24.2857,VALID,11,VALID,0,
2011-08-07, 03:00:04,VALID,1003.32,VALID,0,INVALID,163.716,VALID,0,VALID,24.2662,VALID,11,VALID,0,
2011-08-07, 03:01:04,VALID,1003.33,VALID,0,INVALID,163.716,VALID,0,VALID,24.2468,VALID,11,VALID,0,
2011-08-07, 03:02:04,VALID,1003.37,VALID,0,INVALID,163.716,VALID,0,VALID,24.2875,VALID,11,VALID,0,
2011-08-07, 03:03:04,VALID,1003.38,VALID,0,INVALID,163.716,VALID,0,VALID,24.2468,VALID,11,VALID,0,
2011-08-07, 03:04:04,VALID,1003.39,VALID,0,INVALID,163.708,VALID,0,VALID,24.2662,VALID,24,VALID,0,
2011-08-07, 03:05:04,VALID,1003.41,VALID,0,INVALID,163.708,VALID,0,VALID,24.2681,VALID,24,VALID,0,
2011-08-07, 03:06:04,VALID,1003.41,VALID,0,INVALID,163.784,VALID,0,VALID,24.2468,VALID,25,VALID,0,
2011-08-07, 03:07:04,VALID,1003.39,VALID,0,INVALID,163.693,VALID,0.100563,VALID,24.2662,VALID,25,VALID,0,
2011-08-07, 03:08:04,VALID,1003.44,VALID,0,INVALID,163.701,VALID,0,VALID,24.2857,VALID,25,VALID,0,
2011-08-07, 03:09:04,VALID,1003.45,VALID,0,INVALID,163.708,VALID,0,VALID,24.3052,VALID,23,VALID,0,
2011-08-07, 03:10:04,VALID,1003.44,VALID,0,INVALID,163.708,VALID,0,VALID,24.3283,VALID,23,VALID,0,
2011-08-07, 03:11:04,VALID,1003.49,VALID,0,INVALID,163.701,VALID,0,VALID,24.3459,VALID,23,VALID,0,
2011-08-07, 03:12:04,VALID,1003.52,VALID,0,INVALID,163.693,VALID,0,VALID,24.3246,VALID,23,VALID,0,
2011-08-07, 03:13:04,VALID,1003.56,VALID,0,INVALID,163.716,VALID,0,VALID,24.3441,VALID,23,VALID,0,
2011-08-07, 03:14:04,VALID,1003.57,VALID,0,INVALID,163.716,VALID,0,VALID,24.3246,VALID,23,VALID,0,
2011-08-07, 03:15:04,VALID,1003.58,VALID,0,INVALID,163.693,VALID,0.100563,VALID,24.3246,VALID,23,VALID,0,
2011-08-07, 03:16:04,VALID,1003.59,VALID,0,INVALID,163.769,VALID,0.100563,VALID,24.3246,VALID,23,VALID,0,
2011-08-07, 03:17:04,VALID,1003.63,VALID,0,INVALID,163.693,VALID,0.100563,VALID,24.3033,VALID,23,VALID,0,
2011-08-07, 03:18:04,VALID,1003.64,VALID,0,INVALID,163.701,VALID,0,VALID,24.3246,VALID,23,VALID,0,
2011-08-07, 03:19:04,VALID,1003.63,VALID,0,INVALID,163.685,VALID,0,VALID,24.3265,VALID,23,VALID,0,
2011-08-07, 03:20:04,VALID,1003.66,VALID,0,INVALID,163.701,VALID,0.100563,VALID,24.2644,VALID,23,VALID,0,
2011-08-07, 03:21:04,VALID,1003.67,VALID,0,INVALID,163.708,VALID,0.100563,VALID,24.3052,VALID,23,VALID,0,
2011-08-07, 03:22:04,VALID,1003.69,VALID,0,INVALID,163.746,VALID,0,VALID,24.2839,VALID,23,VALID,0,
2011-08-07, 03:23:04,VALID,1003.69,VALID,0,INVALID,163.685,VALID,0.100563,VALID,24.3441,VALID,23,VALID,0,
2011-08-07, 03:24:04,VALID,1003.75,VALID,0,INVALID,163.701,VALID,0,VALID,24.3052,VALID,23,VALID,0,
2011-08-07, 03:25:04,VALID,1003.79,VALID,0,INVALID,163.723,VALID,0,VALID,24.3052,VALID,23,VALID,0,
2011-08-07, 03:26:04,VALID,1003.82,VALID,0,INVALID,163.693,VALID,0.100563,VALID,24.3459,VALID,23,VALID,0,
2011-08-07, 03:27:04,VALID,1003.82,VALID,0,INVALID,163.693,VALID,0,VALID,24.3052,VALID,23,VALID,0,
2011-08-07, 03:28:04,VALID,1003.82,VALID,0,INVALID,163.685,VALID,0,VALID,24.3052,VALID,23,VALID,0,
2011-08-07, 03:29:04,VALID,1003.83,VALID,0,INVALID,163.723,VALID,0,VALID,24.3246,VALID,23,VALID,0,
2011-08-07, 03:30:04,VALID,1003.82,VALID,0,INVALID,163.708,VALID,0,VALID,24.3246,VALID,23,VALID,0,
2011-08-07, 03:31:04,VALID,1003.81,VALID,0,INVALID,163.701,VALID,0.100563,VALID,24.3246,VALID,23,VALID,0,
2011-08-07, 03:32:04,VALID,1003.79,VALID,0,INVALID,163.701,VALID,0,VALID,24.3246,VALID,23,VALID,0,
2011-08-07, 03:33:04,VALID,1003.83,VALID,0,INVALID,163.754,VALID,0.100563,VALID,24.3265,VALID,23,VALID,0,
2011-08-07, 03:34:04,VALID,1003.87,VALID,0,INVALID,163.746,VALID,0,VALID,24.2839,VALID,23,VALID,0,
2011-08-07, 03:35:04,VALID,1003.88,VALID,0,INVALID,163.701,VALID,0,VALID,24.2662,VALID,24,VALID,0,
2011-08-07, 03:36:04,VALID,1003.93,VALID,0,INVALID,163.723,VALID,0.100563,VALID,24.2273,VALID,24,VALID,0,
2011-08-07, 03:37:04,VALID,1003.96,VALID,0,INVALID,163.777,VALID,0,VALID,24.2291,VALID,24,VALID,0,
2011-08-07, 03:38:04,VALID,1003.98,VALID,0,INVALID,163.723,VALID,0.100563,VALID,24.2078,VALID,24,VALID,0,
2011-08-07, 03:39:04,VALID,1004,VALID,0,INVALID,163.731,VALID,0,VALID,24.1689,VALID,24,VALID,0,
2011-08-07, 03:40:04,VALID,1004,VALID,0,INVALID,163.716,VALID,0,VALID,24.1707,VALID,24,VALID,0,
2011-08-07, 03:41:04,VALID,1004.03,VALID,0,INVALID,163.723,VALID,0,VALID,24.1494,VALID,24,VALID,0,
2011-08-07, 03:42:04,VALID,1004.01,VALID,0,INVALID,163.693,VALID,0.100563,VALID,24.1884,VALID,24,VALID,0,
2011-08-07, 03:43:04,VALID,1003.98,VALID,0,INVALID,163.731,VALID,0,VALID,24.1884,VALID,24,VALID,0,
2011-08-07, 03:44:04,VALID,1003.96,VALID,0,INVALID,163.777,VALID,0,VALID,24.1884,VALID,24,VALID,0,
2011-08-07, 03:45:04,VALID,1003.97,VALID,0,INVALID,163.716,VALID,0.100563,VALID,24.1884,VALID,24,VALID,0,
2011-08-07, 03:46:04,VALID,1003.98,VALID,0,INVALID,163.716,VALID,0.100563,VALID,24.2078,VALID,20,VALID,0,
2011-08-07, 03:47:04,VALID,1003.99,VALID,0,INVALID,163.731,VALID,0.100563,VALID,24.1671,VALID,19,VALID,0,
2011-08-07, 03:48:04,VALID,1003.96,VALID,0,INVALID,163.716,VALID,0.100563,VALID,24.1865,VALID,19,VALID,0,
2011-08-07, 03:49:04,VALID,1003.96,VALID,0,INVALID,163.701,VALID,0.100563,VALID,24.2078,VALID,19,VALID,0,
2011-08-07, 03:50:04,VALID,1003.99,VALID,0,INVALID,163.777,VALID,0.100563,VALID,24.2078,VALID,19,VALID,0,
2011-08-07, 03:51:04,VALID,1004,VALID,0,INVALID,163.739,VALID,0.100563,VALID,24.1884,VALID,19,VALID,0,
2011-08-07, 03:52:04,VALID,1004.01,VALID,0,INVALID,163.701,VALID,0.100563,VALID,24.2078,VALID,19,VALID,0,
2011-08-07, 03:53:04,VALID,1003.96,VALID,0,INVALID,163.693,VALID,0.100563,VALID,24.2078,VALID,19,VALID,0,
2011-08-07, 03:54:04,VALID,1003.97,VALID,0,INVALID,163.708,VALID,0,VALID,24.2078,VALID,19,VALID,0,